User: anonymous   Login
Location: Unspecified
(0.0000°N, 0.0000°E)
Time: 16:29:04
(UTC+00:00)
Language:

NOAA 19 - Orbit

View from above orbital plane
View from above orbital plane
View from above satellite
View from above satellite

Ground track
Ground track

The orbit data is extracted from the following two-line orbital elements,

1 33591U 09005A   18264.91546552 +.00000032 +00000-0 +42735-4 0  9993
2 33591 099.1520 244.9084 0014882 057.4849 302.7758 14.12308581495564
Epoch (UTC): 21 September 2018 21:58:16
Eccentricity: 0.0014882
inclination: 99.1520°
perigee height: 841 km
apogee height: 862 km
right ascension of ascending node: 244.9084°
argument of perigee: 57.4849°
revolutions per day: 14.12308581
mean anomaly at epoch: 302.7758°
orbit number at epoch: 49556

The dashed part of the orbit path shows where the satellite is in the earth's shadow,  

DLR